Time,TemperatureF,DewpointF,PressureIn,WindDirection,WindDirectionDegrees,WindSpeedMPH,WindSpeedGustMPH,Humidity,HourlyPrecipIn,Conditions,Clouds,dailyrainin,SolarRadiationWatts/m^2,SoftwareType,DateUTC
2013-01-18 00:06:00,43.8,42.0,30.41,West,276,0.0,-999.0,94,-99.99,,,0.00,0,weatherlink.com 1.10,2013-01-18 06:06:00,
2013-01-18 00:21:00,44.1,43.0,30.41,West,276,0.0,-999.0,94,-99.99,,,0.00,0,weatherlink.com 1.10,2013-01-18 06:21:00,
2013-01-18 00:36:00,43.9,42.0,30.41,West,276,0.0,-999.0,94,-99.99,,,0.00,0,weatherlink.com 1.10,2013-01-18 06:36:00,
2013-01-18 00:51:00,43.6,42.0,30.41,West,276,0.0,-999.0,94,-99.99,,,0.00,0,weatherlink.com 1.10,2013-01-18 06:51:00,
2013-01-18 01:06:00,43.4,42.0,30.41,West,276,0.0,-999.0,94,-99.99,,,0.00,0,weatherlink.com 1.10,2013-01-18 07:06:00,
2013-01-18 01:21:00,43.1,42.0,30.41,West,276,0.0,-999.0,94,-99.99,,,0.00,0,weatherlink.com 1.10,2013-01-18 07:21:00,
2013-01-18 01:36:00,43.0,42.0,30.41,West,276,0.0,-999.0,95,-99.99,,,0.00,0,weatherlink.com 1.10,2013-01-18 07:36:00,
2013-01-18 01:51:00,43.1,42.0,30.41,West,276,0.0,-999.0,95,-99.99,,,0.00,0,weatherlink.com 1.10,2013-01-18 07:51:00,
2013-01-18 02:06:00,42.9,42.0,30.41,West,276,0.0,-999.0,95,-99.99,,,0.00,0,weatherlink.com 1.10,2013-01-18 08:06:00,
2013-01-18 02:21:00,42.7,41.0,30.41,West,276,0.0,-999.0,95,-99.99,,,0.00,0,weatherlink.com 1.10,2013-01-18 08:21:00,
2013-01-18 02:36:00,42.9,42.0,30.41,West,276,0.0,-999.0,95,-99.99,,,0.00,0,weatherlink.com 1.10,2013-01-18 08:36:00,
2013-01-18 02:51:00,42.9,42.0,30.41,West,276,0.0,-999.0,95,-99.99,,,0.00,0,weatherlink.com 1.10,2013-01-18 08:51:00,
2013-01-18 03:06:00,42.8,42.0,30.41,West,276,0.0,-999.0,95,-99.99,,,0.00,0,weatherlink.com 1.10,2013-01-18 09:06:00,
2013-01-18 03:21:00,42.5,41.0,30.41,West,276,0.0,-999.0,95,-99.99,,,0.00,0,weatherlink.com 1.10,2013-01-18 09:21:00,
2013-01-18 03:36:00,42.3,41.0,30.40,West,276,0.0,-999.0,95,-99.99,,,0.00,0,weatherlink.com 1.10,2013-01-18 09:36:00,
2013-01-18 03:51:00,42.1,41.0,30.41,West,276,0.0,-999.0,95,-99.99,,,0.00,0,weatherlink.com 1.10,2013-01-18 09:51:00,
2013-01-18 04:06:00,41.8,41.0,30.41,West,276,0.0,-999.0,95,-99.99,,,0.00,0,weatherlink.com 1.10,2013-01-18 10:06:00,
2013-01-18 04:21:00,41.9,41.0,30.41,West,276,0.0,-999.0,95,-99.99,,,0.00,0,weatherlink.com 1.10,2013-01-18 10:21:00,
2013-01-18 04:36:00,42.6,41.0,30.41,NW,321,3.0,-999.0,95,-99.99,,,0.00,0,weatherlink.com 1.10,2013-01-18 10:36:00,
2013-01-18 04:51:00,43.5,42.0,30.40,NW,321,1.0,-999.0,93,-99.99,,,0.00,0,weatherlink.com 1.10,2013-01-18 10:51:00,
2013-01-18 05:06:00,43.8,42.0,30.40,NNW,331,1.0,-999.0,92,-99.99,,,0.00,0,weatherlink.com 1.10,2013-01-18 11:06:00,
2013-01-18 05:21:00,43.7,41.0,30.40,NNW,331,1.0,-999.0,91,-99.99,,,0.00,0,weatherlink.com 1.10,2013-01-18 11:21:00,
2013-01-18 05:36:00,43.2,41.0,30.40,NNW,331,1.0,-999.0,91,-99.99,,,0.00,0,weatherlink.com 1.10,2013-01-18 11:36:00,
2013-01-18 05:51:00,42.2,40.0,30.40,NNW,331,0.0,-999.0,91,-99.99,,,0.00,0,weatherlink.com 1.10,2013-01-18 11:51:00,
2013-01-18 06:06:00,42.5,41.0,30.40,NNW,331,1.0,-999.0,93,-99.99,,,0.00,0,weatherlink.com 1.10,2013-01-18 12:06:00,
2013-01-18 06:21:00,42.9,41.0,30.40,NNW,331,0.0,-999.0,92,-99.99,,,0.00,0,weatherlink.com 1.10,2013-01-18 12:21:00,
2013-01-18 06:36:00,42.9,41.0,30.40,NNW,332,0.0,-999.0,91,-99.99,,,0.00,0,weatherlink.com 1.10,2013-01-18 12:36:00,
2013-01-18 06:51:00,42.9,41.0,30.41,NNW,332,0.0,-999.0,91,-99.99,,,0.00,0,weatherlink.com 1.10,2013-01-18 12:51:00,
2013-01-18 07:06:00,42.9,41.0,30.41,NNW,332,0.0,-999.0,91,-99.99,,,0.00,0,weatherlink.com 1.10,2013-01-18 13:06:00,
2013-01-18 07:21:00,42.3,40.0,30.42,NNW,332,0.0,-999.0,91,-99.99,,,0.00,5,weatherlink.com 1.10,2013-01-18 13:21:00,
2013-01-18 07:36:00,41.5,39.0,30.42,NNW,332,0.0,-999.0,91,-99.99,,,0.00,12,weatherlink.com 1.10,2013-01-18 13:36:00,
2013-01-18 07:51:00,41.3,39.0,30.43,NNW,332,0.0,-999.0,92,-99.99,,,0.00,19,weatherlink.com 1.10,2013-01-18 13:51:00,
2013-01-18 08:06:00,42.3,41.0,30.43,NNW,332,0.0,-999.0,94,-99.99,,,0.00,23,weatherlink.com 1.10,2013-01-18 14:06:00,
2013-01-18 08:21:00,43.3,42.0,30.43,NW,319,2.0,-999.0,94,-99.99,,,0.00,26,weatherlink.com 1.10,2013-01-18 14:21:00,
2013-01-18 08:36:00,44.1,43.0,30.44,NW,308,0.0,-999.0,94,-99.99,,,0.00,199,weatherlink.com 1.10,2013-01-18 14:36:00,
2013-01-18 08:51:00,46.8,45.0,30.44,North,351,2.0,-999.0,94,-99.99,,,0.00,250,weatherlink.com 1.10,2013-01-18 14:51:00,
2013-01-18 09:06:00,50.2,47.0,30.44,North,355,0.0,-999.0,87,-99.99,,,0.00,297,weatherlink.com 1.10,2013-01-18 15:06:00,
2013-01-18 09:21:00,52.6,47.0,30.44,NE,51,4.0,-999.0,82,-99.99,,,0.00,345,weatherlink.com 1.10,2013-01-18 15:21:00,
2013-01-18 09:37:00,54.2,47.0,30.45,NNE,27,6.0,-999.0,77,-99.99,,,0.00,397,weatherlink.com 1.10,2013-01-18 15:37:00,
2013-01-18 09:52:00,55.3,47.0,30.45,NE,40,6.0,-999.0,74,-99.99,,,0.00,441,weatherlink.com 1.10,2013-01-18 15:52:00,
2013-01-18 10:07:00,56.0,47.0,30.45,NE,53,5.0,-999.0,72,-99.99,,,0.00,462,weatherlink.com 1.10,2013-01-18 16:07:00,
2013-01-18 10:22:00,57.1,47.0,30.45,NE,38,5.0,-999.0,70,-99.99,,,0.00,510,weatherlink.com 1.10,2013-01-18 16:22:00,
2013-01-18 10:37:00,58.0,47.0,30.45,East,83,5.0,-999.0,68,-99.99,,,0.00,547,weatherlink.com 1.10,2013-01-18 16:37:00,
2013-01-18 10:52:00,58.8,48.0,30.45,NE,37,7.0,-999.0,67,-99.99,,,0.00,577,weatherlink.com 1.10,2013-01-18 16:52:00,
2013-01-18 11:07:00,59.8,48.0,30.44,NE,55,6.0,-999.0,66,-99.99,,,0.00,605,weatherlink.com 1.10,2013-01-18 17:07:00,
2013-01-18 11:22:00,61.4,48.0,30.43,ENE,77,3.0,-999.0,61,-99.99,,,0.00,633,weatherlink.com 1.10,2013-01-18 17:22:00,
2013-01-18 11:37:00,61.3,48.0,30.42,NE,45,6.0,-999.0,62,-99.99,,,0.00,654,weatherlink.com 1.10,2013-01-18 17:37:00,
2013-01-18 11:52:00,61.4,49.0,30.41,ENE,75,4.0,-999.0,64,-99.99,,,0.00,668,weatherlink.com 1.10,2013-01-18 17:52:00,
2013-01-18 12:07:00,61.4,49.0,30.40,ENE,71,4.0,-999.0,64,-99.99,,,0.00,654,weatherlink.com 1.10,2013-01-18 18:07:00,
2013-01-18 12:22:00,63.2,49.0,30.39,ENE,58,4.0,-999.0,61,-99.99,,,0.00,687,weatherlink.com 1.10,2013-01-18 18:22:00,
2013-01-18 12:37:00,64.1,49.0,30.38,NE,46,4.0,-999.0,59,-99.99,,,0.00,691,weatherlink.com 1.10,2013-01-18 18:37:00,
2013-01-18 12:52:00,63.8,49.0,30.36,ENE,71,4.0,-999.0,59,-99.99,,,0.00,689,weatherlink.com 1.10,2013-01-18 18:52:00,
2013-01-18 13:07:00,63.7,49.0,30.35,ENE,74,3.0,-999.0,59,-99.99,,,0.00,687,weatherlink.com 1.10,2013-01-18 19:07:00,
2013-01-18 13:22:00,63.7,48.0,30.34,East,86,5.0,-999.0,57,-99.99,,,0.00,687,weatherlink.com 1.10,2013-01-18 19:22:00,
2013-01-18 13:37:00,64.7,48.0,30.33,ENE,66,2.0,-999.0,56,-99.99,,,0.00,671,weatherlink.com 1.10,2013-01-18 19:37:00,
2013-01-18 13:52:00,64.4,49.0,30.32,NE,55,9.0,-999.0,57,-99.99,,,0.00,650,weatherlink.com 1.10,2013-01-18 19:52:00,
2013-01-18 14:07:00,64.8,49.0,30.32,East,101,3.0,-999.0,56,-99.99,,,0.00,626,weatherlink.com 1.10,2013-01-18 20:07:00,
2013-01-18 14:23:00,65.3,48.0,30.31,East,101,5.0,-999.0,54,-99.99,,,0.00,603,weatherlink.com 1.10,2013-01-18 20:23:00,
2013-01-18 14:38:00,65.4,47.0,30.31,SSE,163,1.0,-999.0,52,-99.99,,,0.00,571,weatherlink.com 1.10,2013-01-18 20:38:00,
2013-01-18 14:53:00,64.8,47.0,30.31,SSE,153,2.0,-999.0,53,-99.99,,,0.00,538,weatherlink.com 1.10,2013-01-18 20:53:00,
2013-01-18 15:08:00,65.5,48.0,30.30,SSE,152,8.0,-999.0,53,-99.99,,,0.00,504,weatherlink.com 1.10,2013-01-18 21:08:00,
2013-01-18 15:23:00,64.5,47.0,30.30,SSE,154,5.0,-999.0,54,-99.99,,,0.00,452,weatherlink.com 1.10,2013-01-18 21:23:00,
2013-01-18 15:38:00,63.9,47.0,30.30,ENE,77,3.0,-999.0,55,-99.99,,,0.00,422,weatherlink.com 1.10,2013-01-18 21:38:00,
2013-01-18 15:53:00,63.4,47.0,30.30,ENE,63,2.0,-999.0,56,-99.99,,,0.00,381,weatherlink.com 1.10,2013-01-18 21:53:00,
2013-01-18 16:08:00,63.4,48.0,30.30,East,91,4.0,-999.0,57,-99.99,,,0.00,332,weatherlink.com 1.10,2013-01-18 22:08:00,
2013-01-18 16:23:00,63.5,47.0,30.30,East,82,1.0,-999.0,56,-99.99,,,0.00,269,weatherlink.com 1.10,2013-01-18 22:23:00,
2013-01-18 16:38:00,63.5,48.0,30.30,ESE,120,6.0,-999.0,57,-99.99,,,0.00,197,weatherlink.com 1.10,2013-01-18 22:38:00,
2013-01-18 16:53:00,62.3,48.0,30.30,ENE,68,3.0,-999.0,60,-99.99,,,0.00,163,weatherlink.com 1.10,2013-01-18 22:53:00,
2013-01-18 17:08:00,61.6,48.0,30.30,ENE,65,2.0,-999.0,62,-99.99,,,0.00,142,weatherlink.com 1.10,2013-01-18 23:08:00,
2013-01-18 17:23:00,61.0,48.0,30.30,NE,53,4.0,-999.0,63,-99.99,,,0.00,88,weatherlink.com 1.10,2013-01-18 23:23:00,
2013-01-18 17:38:00,60.0,49.0,30.30,East,86,3.0,-999.0,67,-99.99,,,0.00,19,weatherlink.com 1.10,2013-01-18 23:38:00,
2013-01-18 17:53:00,58.9,49.0,30.31,East,84,1.0,-999.0,70,-99.99,,,0.00,5,weatherlink.com 1.10,2013-01-18 23:53:00,
2013-01-18 18:08:00,57.9,49.0,30.31,East,92,2.0,-999.0,72,-99.99,,,0.00,0,weatherlink.com 1.10,2013-01-19 00:08:00,
2013-01-18 18:23:00,57.0,49.0,30.31,East,94,2.0,-999.0,75,-99.99,,,0.00,0,weatherlink.com 1.10,2013-01-19 00:23:00,
2013-01-18 18:38:00,55.9,50.0,30.31,East,88,1.0,-999.0,79,-99.99,,,0.00,0,weatherlink.com 1.10,2013-01-19 00:38:00,
2013-01-18 18:53:00,55.2,50.0,30.31,East,82,0.0,-999.0,81,-99.99,,,0.00,0,weatherlink.com 1.10,2013-01-19 00:53:00,
2013-01-18 19:08:00,54.4,49.0,30.31,ENE,69,1.0,-999.0,83,-99.99,,,0.00,0,weatherlink.com 1.10,2013-01-19 01:08:00,
2013-01-18 19:23:00,53.8,49.0,30.31,ENE,69,0.0,-999.0,85,-99.99,,,0.00,0,weatherlink.com 1.10,2013-01-19 01:23:00,
2013-01-18 19:38:00,53.4,49.0,30.31,East,81,0.0,-999.0,86,-99.99,,,0.00,0,weatherlink.com 1.10,2013-01-19 01:38:00,
2013-01-18 19:53:00,53.0,49.0,30.31,East,81,0.0,-999.0,87,-99.99,,,0.00,0,weatherlink.com 1.10,2013-01-19 01:53:00,
2013-01-18 20:08:00,52.4,49.0,30.31,East,81,0.0,-999.0,88,-99.99,,,0.00,0,weatherlink.com 1.10,2013-01-19 02:08:00,
2013-01-18 20:23:00,52.0,49.0,30.32,East,81,0.0,-999.0,89,-99.99,,,0.00,0,weatherlink.com 1.10,2013-01-19 02:23:00,
2013-01-18 20:38:00,51.8,49.0,30.32,East,81,0.0,-999.0,90,-99.99,,,0.00,0,weatherlink.com 1.10,2013-01-19 02:38:00,
2013-01-18 20:53:00,51.5,49.0,30.32,East,81,1.0,-999.0,90,-99.99,,,0.00,0,weatherlink.com 1.10,2013-01-19 02:53:00,
2013-01-18 21:08:00,51.6,49.0,30.31,ENE,69,2.0,-999.0,91,-99.99,,,0.00,0,weatherlink.com 1.10,2013-01-19 03:08:00,
2013-01-18 21:23:00,51.7,49.0,30.31,ENE,66,1.0,-999.0,91,-99.99,,,0.00,0,weatherlink.com 1.10,2013-01-19 03:23:00,
2013-01-18 21:38:00,51.8,49.0,30.31,NE,48,2.0,-999.0,91,-99.99,,,0.00,0,weatherlink.com 1.10,2013-01-19 03:38:00,
2013-01-18 21:53:00,52.0,50.0,30.31,NE,48,2.0,-999.0,92,-99.99,,,0.00,0,weatherlink.com 1.10,2013-01-19 03:53:00,
2013-01-18 22:08:00,52.3,50.0,30.31,NE,51,1.0,-999.0,92,-99.99,,,0.00,0,weatherlink.com 1.10,2013-01-19 04:08:00,
2013-01-18 22:23:00,52.4,50.0,30.30,NE,53,2.0,-999.0,92,-99.99,,,0.00,0,weatherlink.com 1.10,2013-01-19 04:23:00,
2013-01-18 22:38:00,52.4,50.0,30.30,ENE,57,2.0,-999.0,92,-99.99,,,0.00,0,weatherlink.com 1.10,2013-01-19 04:38:00,
2013-01-18 22:53:00,52.2,50.0,30.30,NE,51,2.0,-999.0,92,-99.99,,,0.00,0,weatherlink.com 1.10,2013-01-19 04:53:00,
2013-01-18 23:08:00,52.2,50.0,30.29,ENE,58,3.0,-999.0,93,-99.99,,,0.00,0,weatherlink.com 1.10,2013-01-19 05:08:00,
2013-01-18 23:23:00,52.2,50.0,30.28,ENE,60,2.0,-999.0,93,-99.99,,,0.00,0,weatherlink.com 1.10,2013-01-19 05:23:00,
2013-01-18 23:38:00,52.0,50.0,30.27,ENE,66,3.0,-999.0,93,-99.99,,,0.00,0,weatherlink.com 1.10,2013-01-19 05:38:00,
2013-01-18 23:53:00,51.8,50.0,30.27,NE,53,1.0,-999.0,94,-99.99,,,0.00,0,weatherlink.com 1.10,2013-01-19 05:53:00,